• în România
  • Lista ţărilor
  • Pe 7 zile
  • Temperatura apei
  • Hartă satelitară
  • Meteo pe hartă
  • Widget-uri
  • user-avatar
    Intrare

    Meteo pe oră la Lisburn

    Astăzi, 17 August, Vineri

    Timp Temperatura Precipitaţii Vânt Presiune Umiditate
    00:00 +10°C° 0 mm 6 m/s 756 mmHg 91%
    01:00 +10°C° 0 mm 6 m/s 756 mmHg 91%
    02:00 +10°C° 0 mm 6 m/s 756 mmHg 91%
    03:00 +10°C° 0 mm 5 m/s 756 mmHg 92%
    04:00 +10°C° 0 mm 5 m/s 756 mmHg 92%
    05:00 +10°C° 0 mm 5 m/s 756 mmHg 92%
    06:00 +10°C° 0 mm 5 m/s 756 mmHg 93%
    07:00 +11°C° 0,2 mm 6 m/s 756 mmHg 93%
    08:00 +11°C° 0,2 mm 6 m/s 756 mmHg 93%
    09:00 +12°C° 0,2 mm 7 m/s 756 mmHg 93%
    10:00 +12°C° 0,4 mm 7 m/s 756 mmHg 93%
    11:00 +13°C° 0,4 mm 8 m/s 756 mmHg 93%
    12:00 +13°C° 0,4 mm 8 m/s 756 mmHg 93%
    13:00 +15°C° 0,6 mm 8 m/s 756 mmHg 93%
    14:00 +15°C° 0,6 mm 8 m/s 756 mmHg 94%
    15:00 +15°C° 0,6 mm 8 m/s 756 mmHg 94%
    16:00 +15°C° 0,4 mm 7 m/s 756 mmHg 94%
    17:00 +15°C° 0,4 mm 7 m/s 756 mmHg 93%
    18:00 +15°C° 0,4 mm 7 m/s 756 mmHg 93%
    19:00 +15°C° 0 mm 7 m/s 756 mmHg 93%
    20:00 +15°C° 0 mm 7 m/s 756 mmHg 93%
    21:00 +15°C° 0 mm 6 m/s 756 mmHg 93%
    22:00 +15°C° 0 mm 6 m/s 756 mmHg 93%
    23:00 +15°C° 0 mm 6 m/s 756 mmHg 93%

    Mâine, 18 August, Sâmbătă

    Timp Temperatura Precipitaţii Vânt Presiune Umiditate
    00:00 +15°C° 0 mm 6 m/s 756 mmHg 92%
    01:00 +15°C° 0 mm 6 m/s 756 mmHg 92%
    02:00 +15°C° 0 mm 6 m/s 756 mmHg 92%
    03:00 +15°C° 0 mm 7 m/s 756 mmHg 92%
    04:00 +15°C° 0 mm 6 m/s 756 mmHg 92%
    05:00 +15°C° 0 mm 6 m/s 756 mmHg 92%
    06:00 +15°C° 0 mm 6 m/s 756 mmHg 93%
    07:00 +16°C° 0 mm 6 m/s 756 mmHg 91%
    08:00 +16°C° 0 mm 6 m/s 757 mmHg 90%
    09:00 +17°C° 0 mm 7 m/s 757 mmHg 89%
    10:00 +17°C° 0 mm 7 m/s 757 mmHg 87%
    11:00 +18°C° 0 mm 7 m/s 757 mmHg 85%
    12:00 +18°C° 0 mm 7 m/s 757 mmHg 83%
    13:00 +19°C° 0 mm 6 m/s 758 mmHg 83%
    14:00 +19°C° 0 mm 5 m/s 758 mmHg 83%
    15:00 +20°C° 0 mm 5 m/s 758 mmHg 84%
    16:00 +19°C° 0,1 mm 4 m/s 758 mmHg 86%
    17:00 +19°C° 0,1 mm 3 m/s 758 mmHg 89%
    18:00 +19°C° 0,1 mm 2 m/s 758 mmHg 92%
    19:00 +18°C° 0,5 mm 2 m/s 758 mmHg 94%
    20:00 +18°C° 0,5 mm 2 m/s 758 mmHg 96%
    21:00 +17°C° 0,5 mm 2 m/s 757 mmHg 97%
    22:00 +17°C° 2,6 mm 3 m/s 757 mmHg 98%
    23:00 +17°C° 2,6 mm 3 m/s 756 mmHg 98%

    Poimâine, 19 August, Duminică

    Timp Temperatura Precipitaţii Vânt Presiune Umiditate
    00:00 +17°C° 2,6 mm 4 m/s 756 mmHg 98%
    01:00 +17°C° 2,4 mm 4 m/s 755 mmHg 98%
    02:00 +17°C° 2,4 mm 4 m/s 755 mmHg 98%
    03:00 +16°C° 2,4 mm 5 m/s 754 mmHg 98%
    04:00 +17°C° 0,3 mm 4 m/s 754 mmHg 98%
    05:00 +17°C° 0,3 mm 4 m/s 754 mmHg 98%
    06:00 +17°C° 0,3 mm 3 m/s 754 mmHg 98%
    07:00 +17°C° 0 mm 4 m/s 755 mmHg 97%
    08:00 +17°C° 0 mm 4 m/s 756 mmHg 95%
    09:00 +16°C° 0 mm 5 m/s 756 mmHg 94%
    10:00 +16°C° 0 mm 5 m/s 757 mmHg 91%
    11:00 +16°C° 0 mm 6 m/s 758 mmHg 88%
    12:00 +16°C° 0 mm 6 m/s 758 mmHg 85%
    13:00 +17°C° 0 mm 5 m/s 759 mmHg 82%
    14:00 +17°C° 0 mm 5 m/s 759 mmHg 79%
    15:00 +19°C° 0 mm 5 m/s 760 mmHg 76%
    16:00 +17°C° 0 mm 5 m/s 760 mmHg 77%
    17:00 +18°C° 0 mm 4 m/s 760 mmHg 78%
    18:00 +18°C° 0 mm 4 m/s 761 mmHg 80%
    19:00 +16°C° 0 mm 3 m/s 761 mmHg 84%
    20:00 +13°C° 0 mm 3 m/s 761 mmHg 88%
    21:00 +13°C° 0 mm 2 m/s 762 mmHg 92%
    22:00 +12°C° 0 mm 2 m/s 761 mmHg 92%
    23:00 +12°C° 0 mm 1 m/s 761 mmHg 92%

    20 August, Luni

    Timp Temperatura Precipitaţii Vânt Presiune Umiditate
    00:00 +12°C° 0 mm 1 m/s 761 mmHg 92%
    01:00 +12°C° 0 mm 1 m/s 761 mmHg 91%
    02:00 +12°C° 0 mm 1 m/s 761 mmHg 90%
    03:00 +13°C° 0 mm 1 m/s 761 mmHg 89%
    04:00 +13°C° 0 mm 2 m/s 760 mmHg 89%
    05:00 +13°C° 0 mm 2 m/s 760 mmHg 90%
    06:00 +13°C° 0 mm 3 m/s 760 mmHg 90%
    07:00 +14°C° 0,1 mm 3 m/s 760 mmHg 91%
    08:00 +15°C° 0,1 mm 4 m/s 760 mmHg 92%
    09:00 +16°C° 0,1 mm 5 m/s 760 mmHg 93%
    10:00 +17°C° 0,1 mm 5 m/s 760 mmHg 92%
    11:00 +19°C° 0,1 mm 5 m/s 759 mmHg 91%
    12:00 +20°C° 0,1 mm 5 m/s 759 mmHg 91%
    13:00 +20°C° 0,2 mm 5 m/s 759 mmHg 88%
    14:00 +21°C° 0,2 mm 6 m/s 759 mmHg 86%
    15:00 +21°C° 0,2 mm 6 m/s 759 mmHg 84%
    16:00 +20°C° 0,1 mm 5 m/s 759 mmHg 85%
    17:00 +20°C° 0,1 mm 5 m/s 759 mmHg 87%
    18:00 +19°C° 0,1 mm 5 m/s 759 mmHg 89%
    19:00 +18°C° 0 mm 4 m/s 759 mmHg 90%
    20:00 +18°C° 0 mm 4 m/s 759 mmHg 92%
    21:00 +17°C° 0 mm 4 m/s 759 mmHg 94%
    22:00 +17°C° 0 mm 4 m/s 760 mmHg 94%
    23:00 +15°C° 0 mm 4 m/s 760 mmHg 94%

    21 August, Marţi

    Timp Temperatura Precipitaţii Vânt Presiune Umiditate
    00:00 +16°C° 0 mm 3 m/s 760 mmHg 94%
    01:00 +16°C° 0 mm 3 m/s 760 mmHg 94%
    02:00 +16°C° 0 mm 3 m/s 760 mmHg 95%
    03:00 +16°C° 0 mm 3 m/s 760 mmHg 95%
    04:00 +14°C° 0 mm 3 m/s 760 mmHg 96%
    05:00 +14°C° 0 mm 3 m/s 760 mmHg 96%
    06:00 +14°C° 0 mm 3 m/s 760 mmHg 96%
    07:00 +14°C° 0 mm 3 m/s 760 mmHg 93%
    08:00 +16°C° 0 mm 3 m/s 760 mmHg 91%
    09:00 +17°C° 0 mm 2 m/s 760 mmHg 88%
    10:00 +17°C° 0,1 mm 3 m/s 761 mmHg 86%
    11:00 +17°C° 0,1 mm 3 m/s 761 mmHg 85%
    12:00 +18°C° 0,1 mm 3 m/s 761 mmHg 84%
    13:00 +17°C° 0,1 mm 3 m/s 761 mmHg 86%
    14:00 +17°C° 0,1 mm 3 m/s 760 mmHg 87%
    15:00 +16°C° 0,1 mm 3 m/s 760 mmHg 89%
    16:00 +16°C° 0,1 mm 3 m/s 760 mmHg 90%
    17:00 +16°C° 0,1 mm 3 m/s 760 mmHg 91%
    18:00 +16°C° 0,1 mm 3 m/s 760 mmHg 92%
    19:00 +14°C° 0,1 mm 3 m/s 761 mmHg 93%
    20:00 +15°C° 0,1 mm 2 m/s 761 mmHg 94%
    21:00 +14°C° 0,1 mm 2 m/s 761 mmHg 95%
    22:00 +14°C° 0 mm 2 m/s 761 mmHg 95%
    23:00 +13°C° 0 mm 2 m/s 762 mmHg 95%

    22 August, Miercuri

    Timp Temperatura Precipitaţii Vânt Presiune Umiditate
    00:00 +13°C° 0 mm 2 m/s 762 mmHg 96%
    01:00 +13°C° 0 mm 2 m/s 762 mmHg 96%
    02:00 +11°C° 0 mm 3 m/s 762 mmHg 96%
    03:00 +11°C° 0 mm 3 m/s 762 mmHg 96%
    04:00 +11°C° 0 mm 3 m/s 762 mmHg 95%
    05:00 +11°C° 0 mm 3 m/s 762 mmHg 95%
    06:00 +12°C° 0 mm 2 m/s 762 mmHg 95%
    07:00 +13°C° 0 mm 2 m/s 762 mmHg 91%
    08:00 +13°C° 0 mm 2 m/s 763 mmHg 88%
    09:00 +14°C° 0 mm 2 m/s 763 mmHg 84%
    10:00 +15°C° 0 mm 2 m/s 763 mmHg 81%
    11:00 +16°C° 0 mm 1 m/s 763 mmHg 78%
    12:00 +18°C° 0 mm 1 m/s 763 mmHg 74%
    13:00 +18°C° 0 mm 1 m/s 763 mmHg 73%
    14:00 +19°C° 0 mm 1 m/s 763 mmHg 71%
    15:00 +19°C° 0 mm 1 m/s 763 mmHg 69%
    16:00 +19°C° 0 mm 1 m/s 763 mmHg 72%
    17:00 +18°C° 0 mm 1 m/s 763 mmHg 75%
    18:00 +18°C° 0 mm 1 m/s 763 mmHg 78%
    19:00 +15°C° 0 mm 1 m/s 763 mmHg 82%
    20:00 +14°C° 0 mm 1 m/s 763 mmHg 87%
    21:00 +13°C° 0 mm 1 m/s 763 mmHg 91%
    22:00 +12°C° 0 mm 1 m/s 763 mmHg 92%
    23:00 +12°C° 0 mm 1 m/s 763 mmHg 93%
    Arată mai mult